Home > Weather > Surrey > Past weeks

Flag for Canada Past Weather in Surrey, British Columbia, Canada — Yesterday and Last 2 Weeks

Now
81 °F

Warm.


Feels Like: 82 °F
Forecast: 59 / 75 °F
Wind: 5 mph from Southwest

Location: P. Meadows Coastal Station

Current Time: Jul 25, 2016 at 5:48:01 PM

Latest Report: Jul 25, 2016 at 5:00 PM


Visibility: N/A

Pressure: 30.02 "Hg

Humidity: 52%

Dew Point: 61 °F

Location of SurreyLocation

Past Weather in Surrey — Graph

°F

Surrey Temperature Yesterday

Maximum temperature yesterday: 80 °F (at 6:00 PM)
Minimum temperature yesterday: 55 °F (at 6:00 AM)
Average temperature yesterday: 68 °F

High & Low Weather Summary for the Past Weeks

 TemperatureHumidityPressure
High83 °F (Jul 21, 4:00 PM)99% (Jul 17, 5:00 AM)30.26 "Hg (Jul 17, 5:00 AM)
Low54 °F (Jul 23, 6:00 AM)38% (Jul 21, 6:00 PM)29.90 "Hg (Jul 17, 5:00 PM)
Average66 °F72%30.08 "Hg
* Reported Jul 10 4:00 PM — Jul 25 4:00 PM, Surrey, Weather by CustomWeather, © 2016

Note: Actual official high and low records may vary slightly from our data, if they occured in-between our weather recording intervals... More about our weather records

Advertising

Surrey Weather History for the Previous 24 Hours

Scroll right to see more
 ConditionsComfort  
Time TempWeatherWind HumidityBarometerVisibility
4:00 PM
Mon, Jul 25
80 °FWarm.5 mph51%30.03 "HgN/A
3:00 PM80 °FWarm.5 mph54%30.04 "HgN/A
2:00 PM77 °FWarm.2 mph57%30.05 "HgN/A
1:00 PM76 °FMild.1 mph56%30.05 "HgN/A
12:00 PM74 °FMild.2 mph60%30.06 "HgN/A
11:00 AM73 °FMild.2 mph65%30.07 "HgN/A
10:00 AM71 °FMild.2 mph66%30.07 "HgN/A
9:00 AM69 °FMild.1 mph71%30.07 "HgN/A
8:00 AM67 °FMild.1 mph75%30.06 "HgN/A
7:00 AM65 °FMild.2 mph83%30.05 "HgN/A
6:00 AM60 °FCool.1 mph92%30.04 "HgN/A
5:00 AM60 °FCool.1 mph93%30.03 "HgN/A
4:00 AM60 °FCool.No wind91%30.03 "HgN/A
3:00 AM62 °FCool.1 mph86%30.02 "HgN/A
2:00 AM62 °FCool.1 mph86%30.02 "HgN/A
1:00 AM64 °FMild.1 mph76%30.01 "HgN/A
12:00 AM65 °FMild.2 mph80%30.02 "HgN/A
11:00 PM
Sun, Jul 24
66 °FMild.1 mph76%30.02 "HgN/A
10:00 PM67 °FMild.2 mph72%30.02 "HgN/A
9:00 PM72 °FMild.3 mph65%30.01 "HgN/A
8:00 PM76 °FMild.3 mph57%30.01 "HgN/A
7:00 PM79 °FWarm.2 mph55%30.01 "HgN/A
6:00 PM80 °FWarm.3 mph49%30.02 "HgN/A
5:00 PM79 °FWarm.3 mph47%30.04 "HgN/A
Weather by CustomWeather, © 2016

See weather overviewHow to use our weather pages